| time (UTC) | temp F | wind direction | speed MPH | gust MPH | rain 1hr in | rain 24hr in | rain mn in | humidity % | barometer mb |
| 20260505101512 | 59 | 232 | 7.0 | 10.0 | 0.00 | 0.00 | 0.00 | 47 | 1013.3 |
| 20260505100010 | 58 | 232 | 6.0 | 9.0 | 0.00 | 0.00 | 0.00 | 50 | 1013.3 |
| 20260505094508 | 58 | 229 | 3.0 | 6.0 | 0.00 | 0.00 | 0.00 | 54 | 1013.0 |
| 20260505093004 | 59 | 232 | 5.0 | 7.0 | 0.00 | 0.00 | 0.00 | 53 | 1013.4 |
| 20260505091501 | 60 | 230 | 7.0 | 9.0 | 0.00 | 0.00 | 0.00 | 46 | 1013.5 |
| 20260505090123 | 60 | 245 | 4.0 | 8.0 | 0.00 | 0.00 | 0.00 | 46 | 1013.5 |
| 20260505084615 | 61 | 253 | 6.0 | 9.0 | 0.00 | 0.00 | 0.00 | 45 | 1013.4 |
| 20260505083111 | 60 | 255 | 6.0 | 10.0 | 0.00 | 0.00 | 0.00 | 46 | 1013.7 |
| 20260505081603 | 59 | 264 | 5.0 | 9.0 | 0.00 | 0.00 | 0.00 | 53 | 1013.8 |
| 20260505074549 | 62 | 277 | 8.0 | 12.0 | 0.00 | 0.00 | 0.00 | 44 | 1014.0 |
| 20260505073054 | 62 | 254 | 9.0 | 14.0 | 0.00 | 0.00 | 0.00 | 41 | 1013.8 |
| 20260505071549 | 62 | 230 | 7.0 | 13.0 | 0.00 | 0.00 | 0.00 | 41 | 1013.8 |
| 20260505070050 | 62 | 241 | 11.0 | 16.0 | 0.00 | 0.00 | 0.00 | 43 | 1013.7 |
| 20260505064539 | 63 | 240 | 7.0 | 11.0 | 0.00 | 0.00 | 0.00 | 39 | 1013.5 |
| 20260505063041 | 63 | 233 | 6.0 | 10.0 | 0.00 | 0.00 | 0.00 | 36 | 1013.4 |
| 20260505061534 | 63 | 226 | 8.0 | 13.0 | 0.00 | 0.00 | 0.00 | 34 | 1013.2 |
| 20260505060051 | 63 | 180 | 5.0 | 9.0 | 0.00 | 0.00 | 0.00 | 33 | 1013.3 |
| 20260505054531 | 64 | 185 | 4.0 | 7.0 | 0.00 | 0.00 | 0.00 | 32 | 1013.4 |
| 20260505053029 | 64 | 239 | 5.0 | 9.0 | 0.00 | 0.00 | 0.00 | 31 | 1013.5 |
| 20260505051530 | 65 | 229 | 5.0 | 11.0 | 0.00 | 0.00 | 0.00 | 30 | 1013.6 |
| 20260505041532 | 67 | 229 | 8.0 | 16.0 | 0.00 | 0.00 | 0.00 | 26 | 1013.6 |
| 20260505040026 | 68 | 279 | 12.0 | 20.0 | 0.00 | 0.00 | 0.00 | 23 | 1013.5 |
| 20260505034525 | 69 | 246 | 10.0 | 16.0 | 0.00 | 0.00 | 0.00 | 21 | 1013.3 |
| 20260505033024 | 69 | 240 | 7.0 | 13.0 | 0.00 | 0.00 | 0.00 | 20 | 1012.9 |
| 20260505031524 | 70 | 230 | 11.0 | 17.0 | 0.00 | 0.00 | 0.00 | 18 | 1012.6 |
| 20260505030023 | 70 | 216 | 11.0 | 17.0 | 0.00 | 0.00 | 0.00 | 18 | 1012.1 |
| 20260505024522 | 71 | 204 | 14.0 | 23.0 | 0.00 | 0.00 | 0.00 | 17 | 1011.6 |
| 20260505023022 | 71 | 197 | 12.0 | 19.0 | 0.00 | 0.00 | 0.00 | 18 | 1011.6 |
| 20260505021521 | 71 | 205 | 11.0 | 18.0 | 0.00 | 0.00 | 0.00 | 17 | 1011.4 |
| 20260505020033 | 71 | 182 | 13.0 | 20.0 | 0.00 | 0.00 | 0.00 | 16 | 1011.1 |
| 20260505014531 | 71 | 219 | 13.0 | 19.0 | 0.00 | 0.00 | 0.00 | 16 | 1011.1 |
| 20260505013023 | 71 | 197 | 10.0 | 16.0 | 0.00 | 0.00 | 0.00 | 16 | 1011.1 |
| 20260505011520 | 71 | 200 | 10.0 | 17.0 | 0.00 | 0.00 | 0.00 | 18 | 1011.2 |
| 20260505010016 | 72 | 171 | 12.0 | 20.0 | 0.00 | 0.00 | 0.00 | 19 | 1011.3 |
| 20260505004516 | 72 | 162 | 14.0 | 23.0 | 0.00 | 0.00 | 0.00 | 17 | 1011.3 |
| 20260505003014 | 73 | 197 | 12.0 | 20.0 | 0.00 | 0.00 | 0.00 | 18 | 1011.3 |
| 20260505001512 | 73 | 193 | 13.0 | 18.0 | 0.00 | 0.00 | 0.00 | 18 | 1011.5 |
| 20260505000012 | 74 | 193 | 9.0 | 22.0 | 0.00 | 0.00 | 0.00 | 18 | 1011.7 |
| 20260504234508 | 74 | 226 | 14.0 | 22.0 | 0.00 | 0.00 | 0.00 | 18 | 1011.8 |
| 20260504233007 | 74 | 223 | 16.0 | 22.0 | 0.00 | 0.00 | 0.00 | 18 | 1012.0 |
| 20260504231506 | 74 | 205 | 13.0 | 24.0 | 0.00 | 0.00 | 0.00 | 19 | 1012.1 |
| 20260504230006 | 75 | 229 | 14.0 | 26.0 | 0.00 | 0.00 | 0.00 | 19 | 1012.2 |
| 20260504224508 | 75 | 205 | 11.0 | 26.0 | 0.00 | 0.00 | 0.00 | 19 | 1012.3 |
| 20260504223125 | 74 | 215 | 16.0 | 22.0 | 0.00 | 0.00 | 0.00 | 19 | 1012.7 |
| 20260504223001 | 74 | 231 | 16.0 | 22.0 | 0.00 | 0.00 | 0.00 | 19 | 1012.8 |
| 20260504221603 | 74 | 191 | 17.0 | 25.0 | 0.00 | 0.00 | 0.00 | 19 | 1013.1 |
| 20260504220056 | 74 | 174 | 17.0 | 25.0 | 0.00 | 0.00 | 0.00 | 18 | 1013.1 |
| 20260504213027 | 74 | 235 | 15.0 | 24.0 | 0.00 | 0.00 | 0.00 | 18 | 1013.3 |
| 20260504211653 | 74 | 218 | 17.0 | 27.0 | 0.00 | 0.00 | 0.00 | 20 | 1013.5 |
| 20260504204546 | 74 | 240 | 15.0 | 23.0 | 0.00 | 0.00 | 0.00 | 18 | 1013.9 |
| 20260504203008 | 73 | 215 | 15.0 | 24.0 | 0.00 | 0.00 | 0.00 | 21 | 1014.2 |
| 20260504201612 | 72 | 197 | 13.0 | 23.0 | 0.00 | 0.00 | 0.00 | 21 | 1014.2 |
| 20260504194530 | 73 | 218 | 15.0 | 24.0 | 0.00 | 0.00 | 0.00 | 20 | 1014.7 |
| 20260504193119 | 72 | 243 | 16.0 | 30.0 | 0.00 | 0.00 | 0.00 | 21 | 1014.7 |
| 20260504191536 | 71 | 201 | 15.0 | 24.0 | 0.00 | 0.00 | 0.00 | 24 | 1014.7 |
| 20260504184555 | 71 | 230 | 14.0 | 20.0 | 0.00 | 0.00 | 0.00 | 26 | 1015.2 |
| 20260504183010 | 70 | 221 | 13.0 | 20.0 | 0.00 | 0.00 | 0.00 | 28 | 1015.5 |
| 20260504181604 | 69 | 229 | 13.0 | 19.0 | 0.00 | 0.00 | 0.00 | 28 | 1015.8 |
| 20260504180006 | 69 | 246 | 11.0 | 18.0 | 0.00 | 0.00 | 0.00 | 27 | 1016.0 |
| 20260504174609 | 69 | 228 | 15.0 | 18.0 | 0.00 | 0.00 | 0.00 | 26 | 1016.1 |
| 20260504173022 | 69 | 218 | 11.0 | 17.0 | 0.00 | 0.00 | 0.00 | 27 | 1016.3 |
| 20260504171620 | 69 | 225 | 12.0 | 18.0 | 0.00 | 0.00 | 0.00 | 28 | 1016.3 |